STARLINK-32180, 60374

Orbit data source: Space-Track

STARLINK-32180, 60374 is a payload satellite owned by SpaceX/Seattle (US) in LEO that was launched on Sun, 04 Aug 2024 UTC via an FALCON 9 launch vehicle from the Air Force Western Test Range (AFWTR). Payload-class satellites include a variety of spacecraft equipped with specific instruments for various scientific and technological missions. These include communications satellites like Starlink; space stations such as the ISS; scientific satellites like the Hubble; Earth observation satellites from companies like Planet Labs, Umbra, and HawkEye 360; GPS; miniature CubeSats for education and research; and military/defense satellites.

Loading next visibility...
Identifier
60374, 2024-138V
Orbit
LEO
Country
Flag of USUS
Related business
Manufacturer
SpaceX/Seattle
Mission
Operational Commercial Communications
Bus & Motor
STARLINK V2M, Unknown motor
Mass
730 kg wet, ~700 kg dry
Launch date (UTC)
2024-08-04 (1 year ago)
Launch vehicle
FALCON 9
Launch site
Air Force Western Test Range (AFWTR)
Object type
Payload
Rocket body
Debris
Shape & HBR
Box + 2 Pan, 17.7 m
Radar Cross Section
33.884 m², Large (>1 m²)

Expand to show TLE details & history
Last TLE update: 1 day ago

TLE from 1 day ago
0 STARLINK-32180
1 60374U 24138V   25353.20523688  .00001449  00000-0  61043-4 0  9996
2 60374  53.1628 323.5443 0001342  79.8851 280.2301 15.30193893 78305
Epoch: 2025-12-19T04:55Z
TLE epoch observation values (Epoch: 2025-12-19T04:55:32.466Z)
Latitude
-0.00003°
Longitude
161.60927°
Altitude
475.97 km
Speed
7.629 km/s
True Right ascension
21h 34m 10s
True Declination
0° 00' 00"
Sunlit
Object was in daylight at epoch
Visualization orbit readout
Latitude
Unknown
Longitude
Unknown
Altitude
Unknown
Speed
Unknown
Apparent Right ascension
Unknown
Apparent Declination
Unknown
Sunlit
N/A
Visualization observer readout
Local Sidereal Time
08:01:53
Azimuth
Unknown
Elevation
Unknown
Doppler factor
Unknown
Orbital elements
Apogee altitude
476.409 km
Perigee altitude
474.57 km
Semi-major axis
6,853.626 km
Eccentricity
0.00013
Inclination
53.1628°
RAAN
323.5443°
Arg. of periapsis
79.8851°
True anomaly
280.21497°
Mean anomaly
280.2301°
Eccentric anomaly
280.22253°
Mean motion
3.82527 °/min
Orbital period
94.11 mins
BSTAR
0.000061043
Loading maneuver chart data...
Computing Atmospheric mass density...
Loading historical data...
Loading historical data...
Loading historical data...
Loading historical data...
Loading historical data...
Loading historical data...
Loading historical data...

Documentation

Showing up to 5 results
|